Wetterdaten: Sonntag, 01.03.2009
Datum Zeit Temp. a Sch. Temp. a Son. Temp. a Bod. Feuchte a. Luftdruck Regen Wind Richtung Richtung Sonnenschein Helligkeit Taupunkt Windchill
01.03.2009 00:02 3,3 C 4,2 C 3,2 C 94 % 1013 hPa 0,0 l/m 0,0 m/s (0 Bft) O-SO 120 0 min 0 lux 2,4 C 3,3 C
01.03.2009 00:07 3,4 C 4,2 C 3,0 C 95 % 1013 hPa 0,0 l/m 0,0 m/s (0 Bft) O-SO 120 0 min 0 lux 2,7 C 3,4 C
01.03.2009 00:11 3,3 C 4,2 C 2,9 C 95 % 1013 hPa 0,0 l/m 0,0 m/s (0 Bft) O-SO 120 0 min 0 lux 2,6 C 3,3 C
01.03.2009 00:17 3,1 C 4,1 C 2,8 C 95 % 1013 hPa 0,0 l/m 0,0 m/s (0 Bft) O-SO 120 0 min 0 lux 2,4 C 3,1 C
01.03.2009 00:22 3,0 C 3,9 C 2,6 C 95 % 1013 hPa 0,0 l/m 0,0 m/s (0 Bft) O-SO 120 0 min 0 lux 2,3 C 3,0 C
01.03.2009 00:27 2,9 C 3,9 C 2,8 C 95 % 1013 hPa 0,0 l/m 0,0 m/s (0 Bft) O-SO 120 0 min 0 lux 2,2 C 2,9 C
01.03.2009 00:32 3,0 C 3,9 C 2,9 C 95 % 1013 hPa 0,0 l/m 0,0 m/s (0 Bft) O-SO 120 0 min 0 lux 2,3 C 3,0 C
01.03.2009 00:37 3,0 C 3,8 C 2,8 C 95 % 1013 hPa 0,0 l/m 0,0 m/s (0 Bft) O-SO 120 0 min 0 lux 2,3 C 3,0 C
01.03.2009 00:42 3,0 C 3,9 C 3,0 C 95 % 1013 hPa 0,0 l/m 0,0 m/s (0 Bft) O-SO 120 0 min 0 lux 2,3 C 3,0 C
01.03.2009 00:47 3,1 C 3,9 C 3,0 C 95 % 1013 hPa 0,0 l/m 0,0 m/s (0 Bft) O-SO 120 0 min 0 lux 2,4 C 3,1 C
01.03.2009 00:52 3,1 C 3,9 C 3,1 C 95 % 1013 hPa 0,0 l/m 0,0 m/s (0 Bft) O-SO 120 0 min 0 lux 2,4 C 3,1 C
01.03.2009 00:57 3,1 C 3,9 C 3,1 C 95 % 1013 hPa 0,0 l/m 0,0 m/s (0 Bft) O-SO 120 0 min 0 lux 2,4 C 3,1 C
01.03.2009 01:01 3,2 C 3,9 C 3,2 C 95 % 1013 hPa 0,0 l/m 0,0 m/s (0 Bft) O-SO 120 0 min 0 lux 2,5 C 3,2 C
01.03.2009 01:07 3,3 C 4,0 C 3,2 C 95 % 1013 hPa 0,0 l/m 0,0 m/s (0 Bft) O-SO 120 0 min 0 lux 2,6 C 3,3 C
01.03.2009 01:12 3,3 C 4,1 C 3,1 C 95 % 1013 hPa 0,0 l/m 0,0 m/s (0 Bft) O-SO 120 0 min 0 lux 2,6 C 3,3 C
01.03.2009 01:17 3,4 C 4,1 C 3,2 C 96 % 1013 hPa 0,0 l/m 0,0 m/s (0 Bft) O-SO 120 0 min 0 lux 2,8 C 3,4 C
01.03.2009 01:22 3,4 C 4,1 C 3,2 C 96 % 1013 hPa 0,0 l/m 0,0 m/s (0 Bft) O-SO 120 0 min 0 lux 2,8 C 3,4 C
01.03.2009 01:27 3,4 C 4,2 C 3,3 C 96 % 1013 hPa 0,0 l/m 0,0 m/s (0 Bft) O-SO 120 0 min 0 lux 2,8 C 3,4 C
01.03.2009 01:32 3,4 C 4,2 C 3,3 C 96 % 1013 hPa 0,0 l/m 0,0 m/s (0 Bft) O-SO 120 0 min 0 lux 2,8 C 3,4 C
01.03.2009 01:37 3,5 C 4,2 C 3,3 C 96 % 1013 hPa 0,0 l/m 0,0 m/s (0 Bft) O-SO 120 0 min 0 lux 2,9 C 3,5 C
01.03.2009 01:42 3,5 C 4,3 C 3,3 C 96 % 1013 hPa 0,0 l/m 0,0 m/s (0 Bft) O-SO 120 0 min 0 lux 2,9 C 3,5 C
01.03.2009 01:47 3,5 C 4,4 C 3,3 C 96 % 1013 hPa 0,0 l/m 0,0 m/s (0 Bft) O-SO 120 0 min 0 lux 2,9 C 3,5 C
01.03.2009 01:52 3,6 C 4,4 C 3,4 C 96 % 1012 hPa 0,0 l/m 0,0 m/s (0 Bft) O-SO 120 0 min 0 lux 3,0 C 3,6 C
01.03.2009 01:57 3,6 C 4,4 C 3,4 C 96 % 1012 hPa 0,0 l/m 0,0 m/s (0 Bft) O-SO 120 0 min 0 lux 3,0 C 3,6 C
01.03.2009 02:02 3,6 C 4,4 C 3,4 C 96 % 1012 hPa 0,0 l/m 0,0 m/s (0 Bft) O-SO 120 0 min 0 lux 3,0 C 3,6 C
01.03.2009 02:07 3,7 C 4,4 C 3,4 C 96 % 1012 hPa 0,0 l/m 0,0 m/s (0 Bft) O-SO 120 0 min 0 lux 3,1 C 3,7 C
01.03.2009 02:12 3,7 C 4,4 C 3,4 C 96 % 1012 hPa 0,0 l/m 0,0 m/s (0 Bft) O-SO 120 0 min 0 lux 3,1 C 3,7 C
01.03.2009 02:17 3,7 C 4,5 C 3,4 C 96 % 1012 hPa 0,0 l/m 0,0 m/s (0 Bft) O-SO 120 0 min 0 lux 3,1 C 3,7 C
01.03.2009 02:22 3,7 C 4,5 C 3,5 C 96 % 1012 hPa 0,0 l/m 0,0 m/s (0 Bft) O-SO 120 0 min 0 lux 3,1 C 3,7 C
01.03.2009 02:27 3,8 C 4,6 C 3,4 C 96 % 1012 hPa 0,0 l/m 0,0 m/s (0 Bft) O-SO 120 0 min 0 lux 3,2 C 3,8 C
01.03.2009 02:32 3,8 C 4,5 C 3,4 C 96 % 1012 hPa 0,0 l/m 0,0 m/s (0 Bft) O-SO 120 0 min 0 lux 3,2 C 3,8 C
01.03.2009 02:37 3,8 C 4,6 C 3,4 C 96 % 1012 hPa 0,0 l/m 0,0 m/s (0 Bft) O-SO 120 0 min 0 lux 3,2 C 3,8 C
01.03.2009 02:42 3,7 C 4,6 C 3,3 C 96 % 1012 hPa 0,0 l/m 0,0 m/s (0 Bft) O-SO 120 0 min 0 lux 3,1 C 3,7 C
01.03.2009 02:47 3,7 C 4,6 C 3,4 C 96 % 1012 hPa 0,0 l/m 0,0 m/s (0 Bft) O-SO 120 0 min 0 lux 3,1 C 3,7 C
01.03.2009 02:52 3,8 C 4,5 C 3,5 C 96 % 1012 hPa 0,0 l/m 0,0 m/s (0 Bft) O-SO 120 0 min 0 lux 3,2 C 3,8 C
01.03.2009 02:57 3,8 C 4,5 C 3,3 C 96 % 1012 hPa 0,0 l/m 0,0 m/s (0 Bft) O-SO 120 0 min 0 lux 3,2 C 3,8 C
01.03.2009 03:02 3,8 C 4,5 C 3,4 C 96 % 1012 hPa 0,0 l/m 0,0 m/s (0 Bft) O-SO 120 0 min 0 lux 3,2 C 3,8 C
01.03.2009 03:07 3,8 C 4,6 C 3,5 C 96 % 1012 hPa 0,0 l/m 0,0 m/s (0 Bft) O-SO 120 0 min 0 lux 3,2 C 3,8 C
01.03.2009 03:12 3,9 C 4,6 C 3,5 C 96 % 1012 hPa 0,0 l/m 0,0 m/s (0 Bft) O-SO 120 0 min 0 lux 3,3 C 3,9 C
01.03.2009 03:17 3,9 C 4,6 C 3,4 C 96 % 1012 hPa 0,0 l/m 0,0 m/s (0 Bft) O-SO 120 0 min 0 lux 3,3 C 3,9 C
01.03.2009 03:22 3,9 C 4,6 C 3,5 C 96 % 1012 hPa 0,0 l/m 0,0 m/s (0 Bft) O-SO 120 0 min 0 lux 3,3 C 3,9 C
01.03.2009 03:27 3,9 C 4,7 C 3,6 C 96 % 1012 hPa 0,0 l/m 0,0 m/s (0 Bft) O-SO 120 0 min 0 lux 3,3 C 3,9 C
01.03.2009 03:32 4,0 C 4,7 C 3,6 C 96 % 1012 hPa 0,0 l/m 0,0 m/s (0 Bft) O-SO 120 0 min 0 lux 3,4 C 4,0 C
01.03.2009 03:37 4,0 C 4,8 C 3,5 C 96 % 1012 hPa 0,0 l/m 0,0 m/s (0 Bft) O-SO 120 0 min 0 lux 3,4 C 4,0 C
01.03.2009 03:42 4,0 C 4,8 C 3,6 C 96 % 1012 hPa 0,0 l/m 0,0 m/s (0 Bft) O-SO 120 0 min 0 lux 3,4 C 4,0 C
01.03.2009 03:47 4,0 C 4,8 C 3,6 C 96 % 1012 hPa 0,0 l/m 0,0 m/s (0 Bft) SO 125 0 min 0 lux 3,4 C 4,0 C
01.03.2009 03:52 4,0 C 4,8 C 3,6 C 96 % 1011 hPa 0,0 l/m 0,2 m/s (0 Bft) O-SO 120 0 min 0 lux 3,4 C 4,0 C
01.03.2009 03:57 4,2 C 4,8 C 3,7 C 96 % 1011 hPa 0,0 l/m 0,0 m/s (0 Bft) O-SO 120 0 min 0 lux 3,6 C 4,2 C
01.03.2009 04:02 4,4 C 4,9 C 3,7 C 96 % 1011 hPa 0,0 l/m 0,0 m/s (0 Bft) O-SO 120 0 min 0 lux 3,8 C 4,4 C
01.03.2009 04:07 4,5 C 4,9 C 3,7 C 96 % 1011 hPa 0,0 l/m 0,0 m/s (0 Bft) O-SO 120 0 min 0 lux 3,9 C 4,5 C
01.03.2009 04:12 4,6 C 5,0 C 3,8 C 97 % 1011 hPa 0,0 l/m 0,0 m/s (0 Bft) O-SO 120 0 min 0 lux 4,2 C 4,6 C
01.03.2009 04:17 4,7 C 5,0 C 3,8 C 97 % 1011 hPa 0,0 l/m 0,0 m/s (0 Bft) O-SO 120 0 min 0 lux 4,3 C 4,7 C
01.03.2009 04:22 4,7 C 5,1 C 3,8 C 96 % 1011 hPa 0,0 l/m 0,0 m/s (0 Bft) O-SO 120 0 min 0 lux 4,1 C 4,7 C
01.03.2009 04:27 4,6 C 5,1 C 3,7 C 96 % 1011 hPa 0,0 l/m 0,0 m/s (0 Bft) O-SO 120 0 min 0 lux 4,0 C 4,6 C
01.03.2009 04:32 4,5 C 5,1 C 3,7 C 96 % 1011 hPa 0,0 l/m 0,0 m/s (0 Bft) O-SO 120 0 min 0 lux 3,9 C 4,5 C
01.03.2009 04:37 4,3 C 5,1 C 3,7 C 96 % 1011 hPa 0,0 l/m 0,0 m/s (0 Bft) O-SO 120 0 min 0 lux 3,7 C 4,3 C
01.03.2009 04:42 4,3 C 5,1 C 3,7 C 96 % 1011 hPa 0,0 l/m 0,0 m/s (0 Bft) O-SO 120 0 min 0 lux 3,7 C 4,3 C
01.03.2009 04:47 4,4 C 5,1 C 3,7 C 96 % 1011 hPa 0,0 l/m 0,0 m/s (0 Bft) O-SO 120 0 min 0 lux 3,8 C 4,4 C
01.03.2009 04:52 4,4 C 5,1 C 3,8 C 96 % 1011 hPa 0,0 l/m 0,0 m/s (0 Bft) O-SO 120 0 min 0 lux 3,8 C 4,4 C
01.03.2009 04:57 4,4 C 5,1 C 3,7 C 96 % 1011 hPa 0,0 l/m 0,0 m/s (0 Bft) O-SO 120 0 min 0 lux 3,8 C 4,4 C
01.03.2009 05:02 4,4 C 5,1 C 3,7 C 96 % 1011 hPa 0,0 l/m 0,0 m/s (0 Bft) O-SO 120 0 min 0 lux 3,8 C 4,4 C
01.03.2009 05:07 4,4 C 5,2 C 3,7 C 96 % 1011 hPa 0,0 l/m 0,0 m/s (0 Bft) O-SO 120 0 min 0 lux 3,8 C 4,4 C
01.03.2009 05:12 4,3 C 5,2 C 3,8 C 96 % 1011 hPa 0,0 l/m 0,2 m/s (0 Bft) O-SO 120 0 min 0 lux 3,7 C 4,3 C
01.03.2009 05:17 4,3 C 5,2 C 3,8 C 96 % 1011 hPa 0,0 l/m 0,0 m/s (0 Bft) O-SO 120 0 min 0 lux 3,7 C 4,3 C
01.03.2009 05:22 4,5 C 5,2 C 3,9 C 96 % 1011 hPa 0,0 l/m 0,0 m/s (0 Bft) O-SO 120 0 min 0 lux 3,9 C 4,5 C
01.03.2009 05:27 4,7 C 5,2 C 3,9 C 96 % 1011 hPa 0,0 l/m 0,0 m/s (0 Bft) O-SO 120 0 min 0 lux 4,1 C 4,7 C
01.03.2009 05:32 4,7 C 5,2 C 3,9 C 96 % 1011 hPa 0,0 l/m 0,0 m/s (0 Bft) O-SO 120 0 min 0 lux 4,1 C 4,7 C
01.03.2009 05:37 4,7 C 5,2 C 3,9 C 96 % 1011 hPa 0,0 l/m 0,3 m/s (0 Bft) O22.5 95 0 min 0 lux 4,1 C 4,7 C
01.03.2009 05:42 4,9 C 5,3 C 4,1 C 96 % 1011 hPa 0,0 l/m 0,0 m/s (0 Bft) O 100 0 min 0 lux 4,3 C 4,9 C
01.03.2009 05:47 5,2 C 5,3 C 4,3 C 96 % 1011 hPa 0,0 l/m 1,4 m/s (1 Bft) O-SO 105 0 min 0 lux 4,6 C 5,2 C
01.03.2009 05:52 5,4 C 5,3 C 4,2 C 97 % 1011 hPa 0,0 l/m 3,4 m/s (2 Bft) O-SO45 110 0 min 0 lux 5,0 C 1,1 C
01.03.2009 05:57 5,6 C 5,5 C 4,4 C 97 % 1011 hPa 0,0 l/m 2,8 m/s (2 Bft) SO22.5 125 0 min 0 lux 5,2 C 2,7 C
01.03.2009 06:01 5,6 C 5,6 C 4,4 C 97 % 1011 hPa 0,0 l/m 2,4 m/s (2 Bft) O22.5 100 0 min 0 lux 5,2 C 3,8 C
01.03.2009 06:06 5,7 C 5,6 C 4,5 C 97 % 1011 hPa 0,0 l/m 3,3 m/s (2 Bft) O-SO22.5 110 0 min 0 lux 5,3 C 1,7 C
01.03.2009 06:11 5,7 C 5,7 C 4,5 C 97 % 1011 hPa 0,0 l/m 3,5 m/s (3 Bft) O-SO22.5 120 0 min 0 lux 5,3 C 1,3 C
01.03.2009 06:16 5,7 C 5,7 C 4,6 C 96 % 1011 hPa 0,0 l/m 2,8 m/s (2 Bft) SO22.5 135 0 min 0 lux 5,1 C 2,8 C
01.03.2009 06:21 5,7 C 5,8 C 4,6 C 96 % 1011 hPa 0,0 l/m 2,8 m/s (2 Bft) SO22.5 125 0 min 0 lux 5,1 C 2,8 C
01.03.2009 06:27 5,7 C 5,8 C 4,6 C 96 % 1011 hPa 0,0 l/m 2,4 m/s (2 Bft) SO22.5 140 0 min 0 lux 5,1 C 3,9 C
01.03.2009 06:32 5,7 C 5,8 C 4,6 C 96 % 1011 hPa 0,0 l/m 1,8 m/s (2 Bft) SO22.5 125 0 min 0 lux 5,1 C 5,7 C
01.03.2009 06:37 5,7 C 5,9 C 4,6 C 96 % 1011 hPa 0,0 l/m 2,2 m/s (2 Bft) SO22.5 130 0 min 0 lux 5,1 C 4,4 C
01.03.2009 06:42 5,6 C 5,9 C 4,6 C 96 % 1011 hPa 0,0 l/m 3,6 m/s (3 Bft) SO45 135 0 min 0 lux 5,0 C 0,9 C
01.03.2009 06:47 5,6 C 5,9 C 4,6 C 96 % 1011 hPa 0,0 l/m 3,5 m/s (3 Bft) SO22.5 135 0 min 0 lux 5,0 C 1,1 C
01.03.2009 06:52 5,6 C 5,9 C 4,6 C 96 % 1011 hPa 0,0 l/m 2,9 m/s (2 Bft) O-SO22.5 120 0 min 0 lux 5,0 C 2,5 C
01.03.2009 06:57 5,6 C 5,9 C 4,6 C 96 % 1011 hPa 0,0 l/m 4,3 m/s (3 Bft) O-SO22.5 110 0 min 0 lux 5,0 C -0,3 C
01.03.2009 07:02 5,6 C 5,9 C 4,6 C 96 % 1011 hPa 0,0 l/m 3,6 m/s (3 Bft) O-SO22.5 105 0 min 57 lux 5,0 C 0,9 C
01.03.2009 07:07 5,6 C 5,9 C 4,6 C 96 % 1011 hPa 0,0 l/m 4,8 m/s (3 Bft) O-SO22.5 115 0 min 89 lux 5,0 C -1,2 C
01.03.2009 07:12 5,6 C 5,9 C 4,6 C 96 % 1011 hPa 0,0 l/m 4,1 m/s (3 Bft) SO22.5 130 0 min 110 lux 5,0 C -0,0 C
01.03.2009 07:17 5,5 C 5,9 C 4,6 C 96 % 1011 hPa 0,0 l/m 3,9 m/s (3 Bft) SO22.5 130 0 min 139 lux 4,9 C 0,1 C
01.03.2009 07:22 5,5 C 5,9 C 4,6 C 96 % 1011 hPa 0,0 l/m 3,4 m/s (2 Bft) SO22.5 130 0 min 232 lux 4,9 C 1,3 C
01.03.2009 07:27 5,5 C 5,9 C 4,6 C 96 % 1011 hPa 0,0 l/m 2,9 m/s (2 Bft) SO22.5 125 0 min 281 lux 4,9 C 2,2 C
01.03.2009 07:32 5,4 C 5,9 C 4,6 C 96 % 1011 hPa 0,0 l/m 3,3 m/s (2 Bft) SO45 125 0 min 357 lux 4,8 C 1,2 C
01.03.2009 07:37 5,5 C 5,9 C 4,6 C 96 % 1011 hPa 0,0 l/m 3,9 m/s (3 Bft) SO45 130 0 min 416 lux 4,9 C 0,2 C
01.03.2009 07:42 5,5 C 5,8 C 4,5 C 96 % 1011 hPa 0,0 l/m 3,2 m/s (2 Bft) SO22.5 125 0 min 498 lux 4,9 C 1,6 C
01.03.2009 07:47 5,3 C 5,8 C 4,5 C 96 % 1011 hPa 0,0 l/m 4,9 m/s (3 Bft) O-SO22.5 115 0 min 936 lux 4,7 C -1,9 C
01.03.2009 07:52 5,3 C 5,8 C 4,4 C 96 % 1011 hPa 0,0 l/m 4,9 m/s (3 Bft) O-SO22.5 115 0 min 1,35 klux 4,7 C -1,9 C
01.03.2009 07:57 5,2 C 5,8 C 4,4 C 96 % 1011 hPa 0,0 l/m 4,3 m/s (3 Bft) O-SO45 105 0 min 1,58 klux 4,6 C -0,9 C
01.03.2009 08:02 5,2 C 5,7 C 4,4 C 96 % 1011 hPa 0,0 l/m 3,4 m/s (2 Bft) O-SO22.5 115 0 min 1,95 klux 4,6 C 0,9 C
01.03.2009 08:07 5,2 C 5,7 C 4,4 C 96 % 1011 hPa 0,0 l/m 4,4 m/s (3 Bft) SO22.5 125 0 min 1,96 klux 4,6 C -1,0 C
01.03.2009 08:12 5,1 C 5,8 C 4,4 C 96 % 1011 hPa 0,0 l/m 4,1 m/s (3 Bft) O-SO22.5 115 0 min 2,05 klux 4,5 C -0,6 C
01.03.2009 08:17 4,9 C 5,7 C 4,3 C 96 % 1011 hPa 0,0 l/m 5,0 m/s (3 Bft) O-SO22.5 115 0 min 2,29 klux 4,3 C -2,4 C
01.03.2009 08:22 4,9 C 5,7 C 4,4 C 96 % 1011 hPa 0,0 l/m 3,5 m/s (3 Bft) O-SO22.5 115 0 min 2,56 klux 4,3 C 0,2 C
01.03.2009 08:27 4,9 C 5,7 C 4,3 C 96 % 1011 hPa 0,0 l/m 4,4 m/s (3 Bft) O-SO22.5 115 0 min 2,99 klux 4,3 C -1,5 C
01.03.2009 08:32 4,9 C 5,7 C 4,3 C 96 % 1011 hPa 0,0 l/m 4,1 m/s (3 Bft) SO45 125 0 min 3,60 klux 4,3 C -1,0 C
01.03.2009 08:37 4,9 C 5,7 C 4,3 C 96 % 1011 hPa 0,0 l/m 3,3 m/s (2 Bft) O-SO22.5 120 0 min 3,71 klux 4,3 C 0,7 C
01.03.2009 08:42 5,1 C 5,7 C 4,4 C 96 % 1011 hPa 0,0 l/m 2,9 m/s (2 Bft) SO45 135 0 min 3,84 klux 4,5 C 1,8 C
01.03.2009 08:47 4,9 C 5,6 C 4,3 C 96 % 1011 hPa 0,0 l/m 4,6 m/s (3 Bft) O-SO22.5 115 0 min 3,76 klux 4,3 C -1,8 C
01.03.2009 08:52 4,9 C 5,6 C 4,3 C 96 % 1011 hPa 0,0 l/m 3,9 m/s (3 Bft) SO45 125 0 min 4,26 klux 4,3 C -0,6 C
01.03.2009 08:57 4,9 C 5,6 C 4,4 C 96 % 1011 hPa 0,0 l/m 2,0 m/s (2 Bft) SO22.5 130 0 min 4,26 klux 4,3 C 4,3 C
01.03.2009 09:02 4,9 C 5,6 C 4,4 C 96 % 1011 hPa 0,0 l/m 3,7 m/s (3 Bft) O-SO22.5 115 0 min 5,57 klux 4,3 C -0,1 C
01.03.2009 09:07 5,1 C 5,7 C 4,4 C 96 % 1011 hPa 0,0 l/m 2,5 m/s (2 Bft) SO22.5 135 0 min 4,74 klux 4,5 C 3,0 C
01.03.2009 09:12 5,1 C 5,6 C 4,4 C 96 % 1011 hPa 0,0 l/m 3,7 m/s (3 Bft) SO22.5 140 0 min 5,70 klux 4,5 C 0,2 C
01.03.2009 09:17 5,1 C 5,6 C 4,4 C 96 % 1011 hPa 0,0 l/m 2,3 m/s (2 Bft) SO45 135 0 min 7,35 klux 4,5 C 3,5 C
01.03.2009 09:22 5,1 C 5,6 C 4,5 C 96 % 1011 hPa 0,0 l/m 4,0 m/s (3 Bft) O-SO45 115 0 min 6,95 klux 4,5 C -0,4 C
01.03.2009 09:27 5,1 C 5,7 C 4,5 C 96 % 1011 hPa 0,0 l/m 4,2 m/s (3 Bft) SO22.5 130 0 min 6,35 klux 4,5 C -0,9 C
01.03.2009 09:32 5,1 C 5,7 C 4,5 C 96 % 1011 hPa 0,0 l/m 3,9 m/s (3 Bft) SO45 130 0 min 7,05 klux 4,5 C -0,3 C
01.03.2009 09:37 5,2 C 5,6 C 4,5 C 96 % 1011 hPa 0,0 l/m 3,9 m/s (3 Bft) SO45 135 0 min 6,36 klux 4,6 C -0,2 C
01.03.2009 09:42 5,2 C 5,7 C 4,5 C 95 % 1011 hPa 0,0 l/m 2,6 m/s (2 Bft) O-SO22.5 110 0 min 5,90 klux 4,5 C 2,7 C
01.03.2009 09:47 5,2 C 5,7 C 4,5 C 96 % 1011 hPa 0,0 l/m 1,6 m/s (2 Bft) SO22.5 130 0 min 4,93 klux 4,6 C 5,2 C
01.03.2009 09:51 5,2 C 5,7 C 4,5 C 96 % 1011 hPa 0,0 l/m 3,1 m/s (2 Bft) SO22.5 130 0 min 4,92 klux 4,6 C 1,6 C
01.03.2009 09:57 5,2 C 5,7 C 4,5 C 95 % 1011 hPa 0,0 l/m 3,9 m/s (3 Bft) SO22.5 125 0 min 5,17 klux 4,5 C -0,2 C
01.03.2009 10:02 5,3 C 5,7 C 4,6 C 95 % 1011 hPa 0,0 l/m 3,1 m/s (2 Bft) O-SO45 110 0 min 5,27 klux 4,6 C 1,7 C
01.03.2009 10:07 5,3 C 5,7 C 4,6 C 95 % 1011 hPa 0,0 l/m 3,1 m/s (2 Bft) O-SO45 110 0 min 5,94 klux 4,6 C 1,7 C
01.03.2009 10:12 5,3 C 5,7 C 4,6 C 95 % 1011 hPa 0,0 l/m 2,5 m/s (2 Bft) SO45 125 0 min 7,39 klux 4,6 C 3,1 C
01.03.2009 10:17 5,4 C 5,8 C 4,7 C 95 % 1011 hPa 0,0 l/m 3,4 m/s (3 Bft) O45 100 0 min 7,62 klux 4,7 C 1,0 C
01.03.2009 10:22 5,5 C 5,8 C 4,7 C 95 % 1011 hPa 0,0 l/m 2,9 m/s (2 Bft) O-SO45 105 0 min 8,43 klux 4,8 C 2,3 C
01.03.2009 10:27 5,6 C 5,8 C 4,8 C 95 % 1011 hPa 0,0 l/m 2,9 m/s (2 Bft) SO45 125 0 min 8,13 klux 4,9 C 2,3 C
01.03.2009 10:32 5,6 C 6,0 C 4,8 C 94 % 1011 hPa 0,0 l/m 2,5 m/s (2 Bft) SO22.5 130 0 min 9,1 klux 4,7 C 3,5 C
01.03.2009 10:37 5,7 C 6,0 C 4,8 C 94 % 1011 hPa 0,0 l/m 2,7 m/s (2 Bft) SO22.5 135 0 min 9,3 klux 4,8 C 3,1 C
01.03.2009 10:42 5,6 C 6,1 C 4,9 C 94 % 1011 hPa 0,0 l/m 2,7 m/s (2 Bft) SO22.5 135 0 min 8,41 klux 4,7 C 2,9 C
01.03.2009 10:47 5,7 C 6,1 C 4,9 C 94 % 1011 hPa 0,0 l/m 3,1 m/s (2 Bft) SO22.5 130 0 min 7,98 klux 4,8 C 2,2 C
01.03.2009 10:52 5,7 C 6,2 C 4,9 C 94 % 1011 hPa 0,0 l/m 2,9 m/s (2 Bft) SO22.5 125 0 min 7,87 klux 4,8 C 2,6 C
01.03.2009 10:57 5,8 C 6,2 C 5,0 C 94 % 1011 hPa 0,0 l/m 2,9 m/s (2 Bft) SO22.5 130 0 min 8,73 klux 4,9 C 2,6 C
01.03.2009 11:01 5,9 C 6,2 C 5,0 C 94 % 1011 hPa 0,0 l/m 2,6 m/s (2 Bft) SO22.5 145 0 min 9,7 klux 5,0 C 3,6 C
01.03.2009 11:07 6,0 C 6,3 C 5,1 C 93 % 1011 hPa 0,0 l/m 2,1 m/s (2 Bft) O-SO22.5 110 0 min 9,1 klux 5,0 C 5,1 C
01.03.2009 11:12 6,0 C 6,4 C 5,1 C 93 % 1011 hPa 0,0 l/m 2,9 m/s (2 Bft) SO22.5 135 0 min 8,76 klux 5,0 C 3,0 C
01.03.2009 11:17 5,9 C 6,4 C 5,2 C 93 % 1011 hPa 0,0 l/m 2,7 m/s (2 Bft) SO22.5 130 0 min 9,7 klux 4,9 C 3,3 C
01.03.2009 11:22 6,0 C 6,5 C 5,2 C 92 % 1011 hPa 0,0 l/m 3,2 m/s (2 Bft) O-SO22.5 115 0 min 10,1 klux 4,8 C 2,3 C
01.03.2009 11:27 6,0 C 6,5 C 5,1 C 92 % 1011 hPa 0,0 l/m 2,7 m/s (2 Bft) O-SO22.5 115 0 min 9,6 klux 4,8 C 3,5 C
01.03.2009 11:32 6,0 C 6,5 C 5,2 C 92 % 1011 hPa 0,0 l/m 2,5 m/s (2 Bft) O-SO22.5 110 0 min 10,4 klux 4,8 C 3,9 C
01.03.2009 11:37 6,0 C 6,6 C 5,3 C 92 % 1011 hPa 0,0 l/m 3,3 m/s (2 Bft) O-SO22.5 115 0 min 10,8 klux 4,8 C 2,0 C
01.03.2009 11:42 6,0 C 6,7 C 5,3 C 92 % 1011 hPa 0,0 l/m 3,1 m/s (2 Bft) O-SO22.5 115 0 min 12,5 klux 4,8 C 2,3 C
01.03.2009 11:47 6,1 C 6,7 C 5,5 C 92 % 1011 hPa 0,0 l/m 2,3 m/s (2 Bft) O-SO22.5 115 0 min 13,2 klux 4,9 C 4,6 C
01.03.2009 11:51 6,3 C 6,8 C 5,7 C 91 % 1011 hPa 0,0 l/m 2,1 m/s (2 Bft) O-SO22.5 120 0 min 15,9 klux 4,9 C 5,2 C
01.03.2009 11:57 6,4 C 7,0 C 5,6 C 91 % 1011 hPa 0,0 l/m 2,5 m/s (2 Bft) SO22.5 125 0 min 14,4 klux 5,0 C 4,4 C
01.03.2009 12:02 6,6 C 7,0 C 5,7 C 91 % 1011 hPa 0,0 l/m 2,6 m/s (2 Bft) O-SO22.5 115 0 min 17,1 klux 5,2 C 4,2 C
01.03.2009 12:07 6,5 C 7,1 C 5,7 C 90 % 1011 hPa 0,0 l/m 4,1 m/s (3 Bft) O-SO22.5 115 0 min 14,4 klux 5,0 C 1,1 C
01.03.2009 12:12 6,5 C 7,2 C 5,8 C 91 % 1011 hPa 0,0 l/m 3,3 m/s (2 Bft) O-SO22.5 115 0 min 14,7 klux 5,1 C 2,6 C
01.03.2009 12:17 6,6 C 7,2 C 5,9 C 91 % 1011 hPa 0,0 l/m 3,1 m/s (2 Bft) O22.5 95 0 min 15,0 klux 5,2 C 3,1 C
01.03.2009 12:22 6,7 C 7,3 C 6,0 C 90 % 1010 hPa 0,0 l/m 3,1 m/s (2 Bft) O-SO45 115 0 min 14,4 klux 5,2 C 3,1 C
01.03.2009 12:27 6,7 C 7,4 C 6,0 C 90 % 1011 hPa 0,0 l/m 3,1 m/s (2 Bft) O-SO22.5 110 0 min 14,3 klux 5,2 C 3,1 C
01.03.2009 12:32 6,8 C 7,5 C 6,1 C 90 % 1010 hPa 0,0 l/m 3,5 m/s (3 Bft) O-SO22.5 115 0 min 15,7 klux 5,3 C 2,5 C
01.03.2009 12:37 6,8 C 7,5 C 6,0 C 90 % 1010 hPa 0,0 l/m 3,3 m/s (2 Bft) SO45 125 0 min 14,9 klux 5,3 C 3,0 C
01.03.2009 12:41 6,9 C 7,6 C 6,1 C 89 % 1010 hPa 0,0 l/m 3,6 m/s (3 Bft) O-SO45 115 0 min 15,6 klux 5,2 C 2,4 C
01.03.2009 12:47 7,0 C 7,6 C 6,1 C 89 % 1010 hPa 0,0 l/m 3,8 m/s (3 Bft) O-SO22.5 120 0 min 15,0 klux 5,3 C 2,2 C
01.03.2009 12:52 7,0 C 7,7 C 6,1 C 88 % 1010 hPa 0,0 l/m 4,1 m/s (3 Bft) O-SO22.5 115 0 min 13,8 klux 5,2 C 1,6 C
01.03.2009 12:57 7,1 C 7,7 C 6,2 C 89 % 1010 hPa 0,0 l/m 2,6 m/s (2 Bft) O-SO22.5 120 0 min 12,6 klux 5,4 C 4,9 C
01.03.2009 13:02 7,1 C 7,7 C 6,3 C 88 % 1010 hPa 0,0 l/m 2,0 m/s (2 Bft) O-SO22.5 120 0 min 14,1 klux 5,2 C 6,4 C
01.03.2009 13:07 7,2 C 7,8 C 6,3 C 88 % 1010 hPa 0,0 l/m 2,7 m/s (2 Bft) O-SO22.5 115 0 min 13,3 klux 5,3 C 4,7 C
01.03.2009 13:12 7,2 C 7,8 C 6,3 C 88 % 1010 hPa 0,0 l/m 2,5 m/s (2 Bft) SO22.5 130 0 min 12,6 klux 5,3 C 5,1 C
01.03.2009 13:17 7,2 C 7,9 C 6,2 C 88 % 1010 hPa 0,0 l/m 3,2 m/s (2 Bft) SO22.5 140 0 min 14,5 klux 5,3 C 3,6 C
01.03.2009 13:22 7,3 C 7,9 C 6,4 C 87 % 1010 hPa 0,0 l/m 3,0 m/s (2 Bft) SO22.5 135 0 min 14,7 klux 5,3 C 4,1 C
01.03.2009 13:27 7,3 C 7,9 C 6,4 C 87 % 1010 hPa 0,0 l/m 2,9 m/s (2 Bft) O-SO45 110 0 min 14,0 klux 5,3 C 4,4 C
01.03.2009 13:32 7,4 C 7,9 C 6,6 C 87 % 1010 hPa 0,0 l/m 2,6 m/s (2 Bft) O-SO22.5 110 0 min 15,7 klux 5,4 C 5,1 C
01.03.2009 13:37 7,3 C 8,0 C 6,7 C 87 % 1010 hPa 0,0 l/m 3,1 m/s (2 Bft) O-SO22.5 115 0 min 15,4 klux 5,3 C 3,8 C
01.03.2009 13:42 7,4 C 8,0 C 6,7 C 87 % 1010 hPa 0,0 l/m 2,5 m/s (2 Bft) O45 100 0 min 17,1 klux 5,4 C 5,3 C
01.03.2009 13:47 7,5 C 8,1 C 6,8 C 87 % 1010 hPa 0,0 l/m 3,0 m/s (2 Bft) O22.5 90 0 min 19,1 klux 5,5 C 4,4 C
01.03.2009 13:52 7,7 C 8,2 C 7,0 C 87 % 1010 hPa 0,0 l/m 3,3 m/s (2 Bft) O22.5 85 0 min 20,5 klux 5,7 C 4,0 C
01.03.2009 13:57 7,8 C 8,3 C 7,0 C 86 % 1010 hPa 0,0 l/m 3,6 m/s (3 Bft) O22.5 100 0 min 19,8 klux 5,6 C 3,4 C
01.03.2009 14:02 7,9 C 8,4 C 7,1 C 86 % 1010 hPa 0,0 l/m 1,9 m/s (2 Bft) O-SO22.5 115 0 min 19,3 klux 5,7 C 7,7 C
01.03.2009 14:07 8,0 C 8,5 C 7,1 C 84 % 1010 hPa 0,0 l/m 2,2 m/s (2 Bft) O-SO22.5 105 0 min 16,5 klux 5,5 C 6,8 C
01.03.2009 14:12 8,0 C 8,5 C 7,1 C 84 % 1010 hPa 0,0 l/m 2,9 m/s (2 Bft) O-SO22.5 105 0 min 17,1 klux 5,5 C 5,0 C
01.03.2009 14:16 8,1 C 8,5 C 7,3 C 85 % 1009 hPa 0,0 l/m 2,6 m/s (2 Bft) O-SO22.5 105 0 min 19,7 klux 5,7 C 5,9 C
01.03.2009 14:22 8,2 C 8,7 C 7,3 C 84 % 1009 hPa 0,0 l/m 2,7 m/s (2 Bft) O-SO22.5 115 0 min 19,5 klux 5,7 C 5,7 C
01.03.2009 14:27 8,2 C 8,8 C 7,2 C 83 % 1009 hPa 0,0 l/m 2,3 m/s (2 Bft) SO 125 0 min 18,0 klux 5,5 C 6,7 C
01.03.2009 14:32 8,2 C 8,8 C 7,3 C 84 % 1009 hPa 0,0 l/m 2,3 m/s (2 Bft) O-SO22.5 110 0 min 16,9 klux 5,7 C 6,8 C
01.03.2009 14:37 8,3 C 8,9 C 7,3 C 84 % 1009 hPa 0,0 l/m 2,0 m/s (2 Bft) O-SO 110 0 min 23,1 klux 5,8 C 7,6 C
01.03.2009 14:42 8,5 C 9,1 C 7,6 C 83 % 1009 hPa 0,0 l/m 1,9 m/s (2 Bft) O-SO45 105 0 min 26,2 klux 5,8 C 8,3 C
01.03.2009 14:47 8,6 C 9,3 C 7,7 C 82 % 1009 hPa 0,0 l/m 1,8 m/s (2 Bft) O22.5 90 0 min 21,4 klux 5,7 C 8,5 C
01.03.2009 14:52 8,9 C 9,4 C 7,8 C 82 % 1009 hPa 0,0 l/m 0,3 m/s (0 Bft) O-SO 115 0 min 23,8 klux 6,0 C 8,9 C
01.03.2009 14:57 9,1 C 9,6 C 7,8 C 81 % 1009 hPa 0,0 l/m 0,2 m/s (0 Bft) O-SO 115 0 min 23,8 klux 6,0 C 9,1 C
01.03.2009 15:02 9,1 C 9,9 C 7,8 C 81 % 1009 hPa 0,0 l/m 0,0 m/s (0 Bft) O-SO 115 0 min 22,8 klux 6,0 C 9,1 C
01.03.2009 15:06 9,1 C 10,5 C 7,8 C 80 % 1009 hPa 0,0 l/m 0,2 m/s (0 Bft) O-SO 115 4 min 32,2 klux 5,8 C 9,1 C
01.03.2009 15:12 9,4 C 11,0 C 8,1 C 80 % 1009 hPa 0,0 l/m 1,4 m/s (1 Bft) O 90 6 min 45,9 klux 6,1 C 9,4 C
01.03.2009 15:17 9,5 C 11,5 C 8,1 C 81 % 1009 hPa 0,0 l/m 0,0 m/s (0 Bft) O 85 5 min 33,6 klux 6,4 C 9,5 C
01.03.2009 15:22 9,6 C 11,5 C 8,1 C 79 % 1009 hPa 0,0 l/m 0,0 m/s (0 Bft) O 85 5 min 29,9 klux 6,1 C 9,6 C
01.03.2009 15:27 9,6 C 11,5 C 8,1 C 79 % 1009 hPa 0,0 l/m 1,1 m/s (1 Bft) O 85 0 min 22,8 klux 6,1 C 9,6 C
01.03.2009 15:32 9,4 C 11,4 C 7,8 C 81 % 1009 hPa 0,0 l/m 0,1 m/s (0 Bft) O 90 0 min 16,7 klux 6,3 C 9,4 C
01.03.2009 15:37 9,3 C 11,1 C 7,7 C 81 % 1009 hPa 0,0 l/m 0,5 m/s (1 Bft) O 90 0 min 13,9 klux 6,2 C 9,3 C
01.03.2009 15:42 9,2 C 11,0 C 7,7 C 81 % 1009 hPa 0,0 l/m 0,0 m/s (0 Bft) O 90 0 min 13,4 klux 6,1 C 9,2 C
01.03.2009 15:47 9,0 C 10,9 C 7,6 C 81 % 1009 hPa 0,0 l/m 0,0 m/s (0 Bft) O 90 0 min 12,5 klux 5,9 C 9,0 C
01.03.2009 15:52 9,0 C 10,7 C 7,6 C 82 % 1009 hPa 0,0 l/m 0,0 m/s (0 Bft) O 90 0 min 13,5 klux 6,1 C 9,0 C
01.03.2009 15:56 9,0 C 10,6 C 7,7 C 82 % 1009 hPa 0,0 l/m 1,1 m/s (1 Bft) S67.5 170 0 min 14,1 klux 6,1 C 9,0 C
01.03.2009 16:02 9,1 C 10,6 C 7,7 C 82 % 1009 hPa 0,0 l/m 0,3 m/s (1 Bft) W-SW 240 0 min 15,0 klux 6,2 C 9,1 C
01.03.2009 16:07 9,2 C 10,7 C 7,8 C 82 % 1009 hPa 0,0 l/m 0,0 m/s (0 Bft) W-SW 240 0 min 16,9 klux 6,3 C 9,2 C
01.03.2009 16:12 9,2 C 10,7 C 7,8 C 81 % 1009 hPa 0,0 l/m 0,0 m/s (0 Bft) SW 230 0 min 14,5 klux 6,1 C 9,2 C
01.03.2009 16:17 9,2 C 10,6 C 7,8 C 81 % 1009 hPa 0,0 l/m 0,0 m/s (0 Bft) SW 230 0 min 13,4 klux 6,1 C 9,2 C
01.03.2009 16:22 9,3 C 10,6 C 7,8 C 81 % 1009 hPa 0,0 l/m 0,0 m/s (0 Bft) SW 230 0 min 12,7 klux 6,2 C 9,3 C
01.03.2009 16:27 9,4 C 10,5 C 7,8 C 81 % 1009 hPa 0,0 l/m 0,1 m/s (0 Bft) SW 230 0 min 11,7 klux 6,3 C 9,4 C
01.03.2009 16:32 9,3 C 10,5 C 7,7 C 81 % 1009 hPa 0,0 l/m 0,1 m/s (0 Bft) SW 220 0 min 10,2 klux 6,2 C 9,3 C
01.03.2009 16:37 9,3 C 10,3 C 7,7 C 81 % 1009 hPa 0,0 l/m 0,1 m/s (0 Bft) SW 215 0 min 9,4 klux 6,2 C 9,3 C
01.03.2009 16:42 9,2 C 10,2 C 7,6 C 81 % 1009 hPa 0,0 l/m 0,1 m/s (0 Bft) S-SW45 195 0 min 8,49 klux 6,1 C 9,2 C
01.03.2009 16:47 9,2 C 10,1 C 7,6 C 81 % 1009 hPa 0,0 l/m 0,1 m/s (0 Bft) S-SW45 195 0 min 8,32 klux 6,1 C 9,2 C
01.03.2009 16:52 9,2 C 10,1 C 7,7 C 80 % 1009 hPa 0,0 l/m 1,9 m/s (2 Bft) S45 190 0 min 9,3 klux 5,9 C 8,8 C
01.03.2009 16:57 9,2 C 10,0 C 7,6 C 80 % 1009 hPa 0,0 l/m 1,3 m/s (1 Bft) SW22.5 225 0 min 7,76 klux 5,9 C 9,2 C
01.03.2009 17:02 9,2 C 9,8 C 7,6 C 80 % 1009 hPa 0,0 l/m 1,2 m/s (1 Bft) SO 140 0 min 7,12 klux 5,9 C 9,2 C
01.03.2009 17:07 9,1 C 9,8 C 7,5 C 81 % 1009 hPa 0,0 l/m 0,3 m/s (1 Bft) SO 140 0 min 4,85 klux 6,0 C 9,1 C
01.03.2009 17:12 9,0 C 9,7 C 7,5 C 80 % 1009 hPa 0,0 l/m 0,0 m/s (0 Bft) SO 135 0 min 4,25 klux 5,7 C 9,0 C
01.03.2009 17:17 9,0 C 9,6 C 7,4 C 80 % 1009 hPa 0,0 l/m 0,0 m/s (0 Bft) SO 135 0 min 3,89 klux 5,7 C 9,0 C
01.03.2009 17:22 8,9 C 9,5 C 7,3 C 80 % 1009 hPa 0,0 l/m 0,0 m/s (0 Bft) SO 135 0 min 3,40 klux 5,6 C 8,9 C
01.03.2009 17:27 8,8 C 9,5 C 7,1 C 81 % 1009 hPa 0,0 l/m 0,0 m/s (0 Bft) SO 135 0 min 3,52 klux 5,7 C 8,8 C
01.03.2009 17:32 8,7 C 9,3 C 7,0 C 81 % 1009 hPa 0,0 l/m 1,1 m/s (1 Bft) S-SW22.5 195 0 min 3,30 klux 5,6 C 8,7 C
01.03.2009 17:37 8,6 C 9,2 C 6,8 C 81 % 1009 hPa 0,0 l/m 0,0 m/s (0 Bft) S 185 0 min 2,85 klux 5,5 C 8,6 C
01.03.2009 17:42 8,4 C 9,2 C 6,6 C 81 % 1009 hPa 0,0 l/m 0,0 m/s (0 Bft) S 185 0 min 2,44 klux 5,3 C 8,4 C
01.03.2009 17:47 8,3 C 8,9 C 6,5 C 81 % 1009 hPa 0,0 l/m 0,0 m/s (0 Bft) S 185 0 min 1,89 klux 5,2 C 8,3 C
01.03.2009 17:52 8,0 C 8,7 C 6,4 C 82 % 1009 hPa 0,0 l/m 0,0 m/s (0 Bft) S 170 0 min 1,62 klux 5,1 C 8,0 C
01.03.2009 17:57 7,8 C 8,6 C 6,0 C 82 % 1009 hPa 0,0 l/m 0,0 m/s (0 Bft) S 170 0 min 1,13 klux 4,9 C 7,8 C
01.03.2009 18:02 7,6 C 8,3 C 5,9 C 83 % 1009 hPa 0,0 l/m 0,0 m/s (0 Bft) S 170 0 min 752 lux 4,9 C 7,6 C
01.03.2009 18:07 7,4 C 8,2 C 5,7 C 83 % 1009 hPa 0,0 l/m 0,0 m/s (0 Bft) S 170 0 min 478 lux 4,7 C 7,4 C
01.03.2009 18:12 7,1 C 7,8 C 5,5 C 83 % 1009 hPa 0,0 l/m 0,0 m/s (0 Bft) S 170 0 min 301 lux 4,4 C 7,1 C
01.03.2009 18:17 6,8 C 7,7 C 5,4 C 84 % 1009 hPa 0,0 l/m 0,0 m/s (0 Bft) S 170 0 min 179 lux 4,3 C 6,8 C
01.03.2009 18:21 6,7 C 7,5 C 5,4 C 86 % 1009 hPa 0,0 l/m 0,0 m/s (0 Bft) S 170 0 min 92 lux 4,5 C 6,7 C
01.03.2009 18:27 6,3 C 7,2 C 5,2 C 85 % 1009 hPa 0,0 l/m 0,0 m/s (0 Bft) S-SO 165 0 min 43 lux 4,0 C 6,3 C
01.03.2009 18:32 6,1 C 7,2 C 5,1 C 87 % 1009 hPa 0,0 l/m 0,0 m/s (0 Bft) S 170 0 min 19 lux 4,1 C 6,1 C
01.03.2009 18:37 6,0 C 7,0 C 4,9 C 86 % 1009 hPa 0,0 l/m 0,0 m/s (0 Bft) S-SO 165 0 min 9 lux 3,8 C 6,0 C
01.03.2009 18:42 5,8 C 6,8 C 4,8 C 87 % 1009 hPa 0,0 l/m 0,0 m/s (0 Bft) S-SO 165 0 min 6 lux 3,8 C 5,8 C
01.03.2009 18:47 5,6 C 6,7 C 4,9 C 88 % 1009 hPa 0,0 l/m 0,0 m/s (0 Bft) S 170 0 min 0 lux 3,8 C 5,6 C
01.03.2009 18:52 5,5 C 6,6 C 4,7 C 88 % 1010 hPa 0,0 l/m 0,0 m/s (0 Bft) S 170 0 min 0 lux 3,7 C 5,5 C
01.03.2009 18:57 5,5 C 6,5 C 4,8 C 89 % 1010 hPa 0,0 l/m 0,0 m/s (0 Bft) S-SW22.5 210 0 min 0 lux 3,8 C 5,5 C
01.03.2009 19:02 5,4 C 6,4 C 4,6 C 89 % 1010 hPa 0,0 l/m 0,0 m/s (0 Bft) SW 225 0 min 0 lux 3,7 C 5,4 C
01.03.2009 19:07 5,3 C 6,3 C 4,6 C 89 % 1010 hPa 0,0 l/m 0,0 m/s (0 Bft) SW 225 0 min 0 lux 3,6 C 5,3 C
01.03.2009 19:11 5,3 C 6,2 C 4,6 C 89 % 1010 hPa 0,0 l/m 0,0 m/s (0 Bft) SW 225 0 min 0 lux 3,6 C 5,3 C
01.03.2009 19:17 5,2 C 6,1 C 4,5 C 90 % 1010 hPa 0,0 l/m 0,0 m/s (0 Bft) SW 220 0 min 0 lux 3,7 C 5,2 C
01.03.2009 19:22 5,2 C 6,1 C 4,4 C 89 % 1010 hPa 0,0 l/m 0,0 m/s (0 Bft) SW 220 0 min 0 lux 3,5 C 5,2 C
01.03.2009 19:27 4,9 C 6,1 C 4,3 C 89 % 1010 hPa 0,0 l/m 0,0 m/s (0 Bft) SW 215 0 min 0 lux 3,2 C 4,9 C
01.03.2009 19:32 4,7 C 5,9 C 4,2 C 89 % 1010 hPa 0,0 l/m 0,0 m/s (0 Bft) SW 215 0 min 0 lux 3,0 C 4,7 C
01.03.2009 19:37 4,5 C 5,8 C 4,2 C 90 % 1010 hPa 0,0 l/m 0,0 m/s (0 Bft) SW 215 0 min 0 lux 3,0 C 4,5 C
01.03.2009 19:42 4,5 C 5,7 C 4,2 C 90 % 1010 hPa 0,0 l/m 0,0 m/s (0 Bft) SW 225 0 min 0 lux 3,0 C 4,5 C
01.03.2009 19:47 4,5 C 5,7 C 4,3 C 91 % 1010 hPa 0,0 l/m 0,0 m/s (0 Bft) SW 225 0 min 0 lux 3,2 C 4,5 C
01.03.2009 19:52 4,7 C 5,8 C 4,4 C 92 % 1010 hPa 0,0 l/m 0,3 m/s (1 Bft) S-SW 210 0 min 0 lux 3,5 C 4,7 C
01.03.2009 19:57 4,9 C 5,8 C 4,4 C 92 % 1010 hPa 0,0 l/m 1,1 m/s (1 Bft) S-SW 210 0 min 0 lux 3,7 C 4,9 C
01.03.2009 20:01 5,1 C 5,8 C 4,5 C 92 % 1010 hPa 0,0 l/m 0,0 m/s (0 Bft) S-SW 210 0 min 0 lux 3,9 C 5,1 C
01.03.2009 20:07 5,2 C 5,8 C 4,6 C 92 % 1010 hPa 0,0 l/m 0,0 m/s (0 Bft) S-SW 210 0 min 0 lux 4,0 C 5,2 C
01.03.2009 20:12 5,2 C 5,9 C 4,4 C 92 % 1010 hPa 0,0 l/m 0,0 m/s (0 Bft) S-SW 210 0 min 0 lux 4,0 C 5,2 C
01.03.2009 20:17 5,2 C 5,9 C 4,4 C 91 % 1010 hPa 0,0 l/m 0,0 m/s (0 Bft) S-SO22.5 160 0 min 0 lux 3,9 C 5,2 C
01.03.2009 20:22 5,2 C 5,9 C 4,5 C 91 % 1010 hPa 0,0 l/m 0,0 m/s (0 Bft) S-SO 150 0 min 0 lux 3,9 C 5,2 C
01.03.2009 20:27 5,2 C 5,9 C 4,5 C 91 % 1010 hPa 0,0 l/m 0,0 m/s (0 Bft) S-SO 150 0 min 0 lux 3,9 C 5,2 C
01.03.2009 20:32 5,2 C 5,9 C 4,5 C 91 % 1010 hPa 0,0 l/m 0,0 m/s (0 Bft) S-SO 150 0 min 0 lux 3,9 C 5,2 C
01.03.2009 20:37 5,2 C 5,9 C 4,5 C 91 % 1010 hPa 0,0 l/m 0,0 m/s (0 Bft) S-SO 150 0 min 0 lux 3,9 C 5,2 C
01.03.2009 20:42 5,2 C 5,9 C 4,4 C 91 % 1010 hPa 0,0 l/m 0,1 m/s (0 Bft) S-SO 150 0 min 0 lux 3,9 C 5,2 C
01.03.2009 20:47 5,2 C 5,9 C 4,5 C 92 % 1010 hPa 0,0 l/m 0,0 m/s (0 Bft) S-SO 150 0 min 0 lux 4,0 C 5,2 C
01.03.2009 20:52 5,2 C 5,9 C 4,5 C 92 % 1010 hPa 0,0 l/m 0,0 m/s (0 Bft) S-SO 150 0 min 0 lux 4,0 C 5,2 C
01.03.2009 20:57 5,3 C 5,9 C 4,5 C 92 % 1010 hPa 0,0 l/m 0,0 m/s (0 Bft) S-SO 150 0 min 0 lux 4,1 C 5,3 C
01.03.2009 21:02 5,3 C 5,9 C 4,4 C 92 % 1010 hPa 0,0 l/m 0,0 m/s (0 Bft) S-SO 150 0 min 0 lux 4,1 C 5,3 C
01.03.2009 21:07 5,2 C 5,9 C 4,4 C 91 % 1010 hPa 0,0 l/m 0,0 m/s (0 Bft) S-SO 150 0 min 0 lux 3,9 C 5,2 C
01.03.2009 21:12 5,2 C 5,9 C 4,4 C 91 % 1010 hPa 0,0 l/m 0,0 m/s (0 Bft) S-SO 150 0 min 0 lux 3,9 C 5,2 C
01.03.2009 21:17 5,1 C 5,9 C 4,4 C 92 % 1010 hPa 0,0 l/m 0,0 m/s (0 Bft) S-SO 150 0 min 0 lux 3,9 C 5,1 C
01.03.2009 21:22 5,2 C 5,9 C 4,5 C 92 % 1010 hPa 0,0 l/m 0,0 m/s (0 Bft) S-SO 150 0 min 0 lux 4,0 C 5,2 C
01.03.2009 21:27 5,2 C 5,8 C 4,5 C 92 % 1010 hPa 0,0 l/m 0,0 m/s (0 Bft) S-SO 150 0 min 0 lux 4,0 C 5,2 C
01.03.2009 21:32 5,2 C 5,9 C 4,5 C 92 % 1010 hPa 0,0 l/m 0,0 m/s (0 Bft) S-SO 150 0 min 0 lux 4,0 C 5,2 C
01.03.2009 21:36 5,2 C 5,9 C 4,5 C 92 % 1010 hPa 0,0 l/m 0,0 m/s (0 Bft) S-SO 150 0 min 0 lux 4,0 C 5,2 C
01.03.2009 21:42 5,2 C 5,9 C 4,5 C 92 % 1010 hPa 0,0 l/m 0,0 m/s (0 Bft) S-SO 150 0 min 0 lux 4,0 C 5,2 C
01.03.2009 21:47 5,2 C 5,8 C 4,6 C 92 % 1010 hPa 0,0 l/m 0,0 m/s (0 Bft) S-SO 150 0 min 0 lux 4,0 C 5,2 C
01.03.2009 21:52 5,2 C 5,9 C 4,5 C 92 % 1010 hPa 0,0 l/m 0,0 m/s (0 Bft) S-SO 150 0 min 0 lux 4,0 C 5,2 C
01.03.2009 21:57 5,3 C 5,9 C 4,5 C 92 % 1010 hPa 0,0 l/m 0,0 m/s (0 Bft) S-SO 150 0 min 0 lux 4,1 C 5,3 C
01.03.2009 22:02 5,3 C 5,9 C 4,6 C 92 % 1010 hPa 0,0 l/m 0,0 m/s (0 Bft) S-SO 150 0 min 0 lux 4,1 C 5,3 C
01.03.2009 22:07 5,4 C 6,0 C 4,6 C 92 % 1010 hPa 0,0 l/m 0,0 m/s (0 Bft) S-SO 150 0 min 0 lux 4,2 C 5,4 C
01.03.2009 22:12 5,4 C 6,0 C 4,6 C 92 % 1010 hPa 0,0 l/m 0,0 m/s (0 Bft) S-SO 150 0 min 0 lux 4,2 C 5,4 C
01.03.2009 22:17 5,5 C 6,0 C 4,6 C 92 % 1010 hPa 0,0 l/m 0,0 m/s (0 Bft) S-SO 150 0 min 0 lux 4,3 C 5,5 C
01.03.2009 22:22 5,5 C 6,0 C 4,5 C 92 % 1010 hPa 0,0 l/m 0,0 m/s (0 Bft) S-SO 150 0 min 0 lux 4,3 C 5,5 C
01.03.2009 22:26 5,4 C 6,0 C 4,6 C 92 % 1010 hPa 0,0 l/m 0,1 m/s (0 Bft) S-SO 155 0 min 0 lux 4,2 C 5,4 C
01.03.2009 22:32 5,4 C 6,0 C 4,6 C 92 % 1010 hPa 0,0 l/m 0,0 m/s (0 Bft) S-SO 155 0 min 0 lux 4,2 C 5,4 C
01.03.2009 22:37 5,5 C 6,0 C 4,6 C 92 % 1010 hPa 0,0 l/m 0,0 m/s (0 Bft) S-SO 155 0 min 0 lux 4,3 C 5,5 C
01.03.2009 22:42 5,5 C 6,0 C 4,5 C 92 % 1010 hPa 0,0 l/m 0,0 m/s (0 Bft) S-SO 155 0 min 0 lux 4,3 C 5,5 C
01.03.2009 22:47 5,4 C 6,0 C 4,5 C 92 % 1010 hPa 0,0 l/m 0,0 m/s (0 Bft) S-SO 155 0 min 0 lux 4,2 C 5,4 C
01.03.2009 22:52 5,4 C 6,0 C 4,6 C 92 % 1010 hPa 0,0 l/m 0,0 m/s (0 Bft) S-SO 155 0 min 0 lux 4,2 C 5,4 C
01.03.2009 22:57 5,4 C 6,0 C 4,5 C 92 % 1010 hPa 0,0 l/m 0,0 m/s (0 Bft) S-SO 155 0 min 0 lux 4,2 C 5,4 C
01.03.2009 23:02 5,4 C 6,0 C 4,5 C 92 % 1010 hPa 0,0 l/m 0,0 m/s (0 Bft) S-SO 155 0 min 0 lux 4,2 C 5,4 C
01.03.2009 23:07 5,4 C 5,9 C 4,5 C 92 % 1010 hPa 0,0 l/m 0,0 m/s (0 Bft) S-SO 155 0 min 0 lux 4,2 C 5,4 C
01.03.2009 23:12 5,4 C 5,9 C 4,5 C 92 % 1010 hPa 0,0 l/m 0,0 m/s (0 Bft) S-SO 155 0 min 0 lux 4,2 C 5,4 C
01.03.2009 23:16 5,4 C 5,9 C 4,4 C 92 % 1010 hPa 0,0 l/m 0,0 m/s (0 Bft) S-SO 155 0 min 0 lux 4,2 C 5,4 C
01.03.2009 23:22 5,3 C 5,9 C 4,4 C 92 % 1010 hPa 0,0 l/m 0,0 m/s (0 Bft) S-SO 155 0 min 0 lux 4,1 C 5,3 C
01.03.2009 23:27 5,3 C 5,9 C 4,4 C 92 % 1010 hPa 0,0 l/m 0,0 m/s (0 Bft) S-SO 155 0 min 0 lux 4,1 C 5,3 C
01.03.2009 23:32 5,3 C 5,9 C 4,4 C 92 % 1010 hPa 0,0 l/m 0,0 m/s (0 Bft) S-SO 155 0 min 0 lux 4,1 C 5,3 C
01.03.2009 23:37 5,4 C 5,9 C 4,4 C 93 % 1010 hPa 0,0 l/m 0,0 m/s (0 Bft) S-SO 155 0 min 0 lux 4,4 C 5,4 C
01.03.2009 23:42 5,3 C 5,9 C 4,4 C 93 % 1010 hPa 0,0 l/m 0,0 m/s (0 Bft) S-SO 155 0 min 0 lux 4,3 C 5,3 C
01.03.2009 23:47 5,3 C 5,9 C 4,4 C 93 % 1010 hPa 0,0 l/m 0,0 m/s (0 Bft) S-SO 155 0 min 0 lux 4,3 C 5,3 C
01.03.2009 23:52 5,3 C 5,9 C 4,4 C 93 % 1010 hPa 0,0 l/m 0,0 m/s (0 Bft) S-SO 155 0 min 0 lux 4,3 C 5,3 C
01.03.2009 23:57 5,2 C 5,9 C 4,4 C 93 % 1010 hPa 0,0 l/m 0,0 m/s (0 Bft) S-SO 155 0 min 0 lux 4,2 C 5,2 C
_ Min-Zeit 00:27 00:37 00:22 15:22 14:16 - 00:02 - - - - 00:27 08:17
Minimum _ 2,9 C 3,8 C 2,6 C 79 % 1009 hPa - 0,0 m/s (0 Bft) - - - - 2,2 C -2,4 C
_ Max-Zeit 15:22 15:17 15:12 04:12 00:02 00:02 08:17 - - 15:12 15:12 15:17 15:22
Maximum _ 9,6 C 11,5 C 8,1 C 97 % 1013 hPa 0,0 l/m 5,0 m/s
O-SO (3 Bft)
- - 6 min 45,9 klux 6,4 C 9,6 C
Durchschnitt _ 5,8 C 6,5 C 5,0 C 91 % 1011 hPa #0,0 l/m 1,2 m/s (1 Bft) O-SO - #20 min. 4,90 klux 4,4 C 4,5 C